Weather Roundup
Issued by NWS Springfield, MO

Home | Current Version | Previous Version | Text Only | Print | Product List | Glossary On
Versions: 1 2 3 4 5 6 7 8 9 10 11 12 13 14 15 16 17 18 19 20 21 22 23 24 25 26 27 28 29 30 31 32 33 34 35 36 37 38 39 40 41 42 43 44 45 46 47 48 49 50
000
NZUS99 KSGF 240759
HRRSGF

HOURLY WEATHER
NATIONAL WEATHER SERVICE SPRINGFIELD MO
300 AM CDT SUN MAY 24 2015

......SGF CWA......

CITY           SKY/WX    TMP DP  RH WIND       PRES   REMARKS
SPRINGFIELD    CLOUDY    67  58  72 SE18G26   29.98R
JOPLIN         HVY RAIN  65  64  97 S18G25    29.93F FOG
WEST PLAINS    MOCLDY    64  54  69 SE7       30.07F
ROLLA          CLOUDY    63  54  72 E9        30.03F
OSAGE BEACH    CLOUDY    66  54  63 SE6       30.01S

......SURROUNDING SGF CWA......

CITY           SKY/WX    TMP DP  RH WIND       PRES   REMARKS
CHANUTE        CLOUDY    64  64 100 S8        29.87F
PARSONS        CLOUDY    64  64 100 S6        29.90S
COFFEYVILLE    CLOUDY    64  63  96 S7        29.89S
EMPORIA        CLOUDY    62  61  96 CALM      29.87F
SILOAM SPRINGS CLOUDY    68  61  77 S10       29.97S
HARRISON AR    CLOUDY    66  60  81 SE9       30.02S
NEAR YELLVILLE PTCLDY    66  57  72 E3        30.01S

......KANSAS AND MISSOURI......

CITY           SKY/WX    TMP DP  RH WIND       PRES   REMARKS
KANSAS CTY INT LGT RAIN  61  60  97 SE16      29.92F
DOWNTOWN KC    LGT RAIN  63  59  87 E15G23    29.90F
COLUMBIA       CLOUDY    61  57  87 E9        30.05F
SEDALIA        CLOUDY    61  57  87 E12       30.01F
ST JOSEPH      LGT RAIN  62  60  93 E16G24    29.90F
ST LOUIS       CLOUDY    67  54  63 E8        30.11F
SPIRIT OF STL  CLOUDY    65  54  67 E3        30.09F
KIRKSVILLE     LGT RAIN  60  59  96 SE12      30.08F
WICHITA        CLOUDY    60  59  96 W7        29.85F
TOPEKA         CLOUDY    65  63  93 SE16      29.88F
OLATHE         LGT RAIN  63  61  93 SE15G26   29.90F

......TENNESSEE......

CITY           SKY/WX    TMP DP  RH WIND       PRES   REMARKS
MEMPHIS        MOCLDY    72  58  61 SE7       30.11S
NASHVILLE      PTCLDY    63  54  72 SE5       30.23R

......ARKANSAS.......

CITY           SKY/WX    TMP DP  RH WIND       PRES   REMARKS
FAYETTEVILLE   LGT RAIN  70  66  87 S17G23    29.96F
FT SMITH       CLOUDY    72  66  81 SE9       29.94F
LITTLE ROCK    PTCLDY    72  64  76 SE6       30.03F

......OKLAHOMA.......

CITY           SKY/WX    TMP DP  RH WIND       PRES   REMARKS
TULSA          LGT RAIN  64  64 100 S9        29.91F
PONCA CITY     CLOUDY    63  62  97 S9        29.88F
MCALESTER      TSTM      63  61  93 N10G17    29.93F FOG
OKLAHOMA CITY  LGT RAIN  60  59  96 SE12      29.89F

......IOWA............

CITY           SKY/WX    TMP DP  RH WIND       PRES   REMARKS
DES MOINES     LGT RAIN  63  56  78 SE12      30.06S
QUAD CITIES    LGT RAIN  66  51  58 VRB7      30.13F

......ILLINOIS........

CITY           SKY/WX    TMP DP  RH WIND       PRES   REMARKS
QUINCY         LGT RAIN  65  54  67 SW8       30.14R
CHICAGO        MOCLDY    62  47  57 S5        30.19R




USA.gov is the U.S. government's official web portal to all federal, state and local government web resources and services.